Home   Weather   Bergen   Past weeks
Flag for Norway

Past Weather in Bergen, Norway — Yesterday and Last 2 Weeks

Now
42 °F

Quite cool.


Feels Like: 42 °F
Forecast: 40 / 35 °F
Wind: 2 mph from Southwest

Location: Bergen / Florida

Current Time: Jan 21, 2020 at 1:21:06 pm

Latest Report: Jan 21, 2020 at 12:00 pm


Visibility: N/A

Pressure: 30.45 "Hg

Humidity: 79%

Dew Point: 36 °F

Location of BergenLocation

Past Weather in Bergen — Graph

°F

Bergen Temperature Yesterday

Maximum temperature yesterday: 47 °F (at 11:00 pm)
Minimum temperature yesterday: 42 °F (at 2:00 am)
Average temperature yesterday: 45 °F

High & Low Weather Summary for the Past Weeks

 TemperatureHumidityPressure
High51 °F (Jan 8, 1:00 am)96% (Jan 10, 6:00 am)30.61 "Hg (Jan 10, 6:00 am)
Low31 °F (Jan 10, 10:00 am)57% (Jan 10, 10:00 pm)28.88 "Hg (Jan 15, 1:00 am)
Average42 °F83%29.71 "Hg
* Reported Jan 6 12:00 pm — Jan 21 12:00 pm, Bergen. Weather by CustomWeather, © 2020

Note: Actual official high and low records may vary slightly from our data, if they occured in-between our weather recording intervals... More about our weather records

Bergen Weather History for the Previous 24 Hours

Scroll right to see more
 ConditionsComfort  
Time TempWeatherWind HumidityBarometerVisibility
12:00 pm
Tue, Jan 21
42 °FQuite cool.2 mph79%30.45 "HgN/A
11:00 am41 °FQuite cool.2 mph88%30.44 "HgN/A
10:00 am41 °FScattered clouds.3 mph90%30.41 "Hg19 mi
9:00 am41 °FQuite cool.2 mph89%30.41 "HgN/A
8:00 am41 °FQuite cool.1 mph88%30.37 "HgN/A
7:00 am43 °FPassing clouds.5 mph87%30.37 "Hg19 mi
6:00 am45 °FCool.6 mph87%30.35 "HgN/A
5:00 am46 °FCool.7 mph90%30.32 "HgN/A
4:00 am46 °FCool.3 mph91%30.28 "HgN/A
3:00 am48 °FCool.8 mph90%30.27 "HgN/A
2:00 am48 °FCool.8 mph91%30.28 "HgN/A
1:00 am48 °FCool.5 mph92%30.30 "HgN/A
12:00 am47 °FCool.2 mph94%30.33 "HgN/A
11:00 pm
Mon, Jan 20
47 °FCool.3 mph95%30.35 "HgN/A
10:00 pm46 °FRain. Low clouds.5 mph95%30.37 "Hg2 mi
9:00 pm46 °FCool.6 mph95%30.39 "HgN/A
8:00 pm46 °FCool.6 mph94%30.41 "HgN/A
7:00 pm46 °FRain. Low clouds.6 mph94%30.43 "Hg2 mi
6:00 pm46 °FCool.7 mph93%30.45 "HgN/A
5:00 pm46 °FCool.7 mph93%30.46 "HgN/A
4:00 pm46 °FRain. Low clouds.7 mph93%30.47 "Hg4 mi
3:00 pm46 °FCool.7 mph93%30.49 "HgN/A
2:00 pm46 °FCool.6 mph94%30.50 "HgN/A
1:00 pm46 °FDrizzle. Low clouds.7 mph94%30.52 "Hg3 mi
Weather by CustomWeather, © 2020

See weather overview

Advertising